Regional Weather Roundup
Issued by NWS

Home | Current Version | Previous Version | Text Only | Print | Product List | Glossary Off
Versions: 1 2 3 4 5 6 7 8 9 10 11 12 13 14 15 16 17 18 19 20 21 22 23 24 25 26 27 28

000
ASUS45 KTFX 281210
RWRMT
MONTANA REGIONAL WEATHER ROUNDUP
NATIONAL WEATHER SERVICE GREAT FALLS MT
600 AM MDT THU APR 28 2016

NOTE: "FAIR" INDICATES FEW OR NO CLOUDS BELOW 12000 FEET WITH NO
SIGNIFICANT WEATHER AND/OR OBSTRUCTIONS TO VISIBILITY.

MTZ001>007-043-281300-
WEST OF THE DIVIDE

CITY           SKY/WX    TMP DP  RH WIND       PRES   REMARKS
KALISPELL      CLOUDY    42  32  67 N5        30.01S
MISSOULA       CLOUDY    43  30  60 SE15      30.01R
BUTTE          FLURRIES  32  27  81 VRB5      29.96S
MULLAN PASS    PTCLDY    31  26  82 VRB5      29.95S
ANACONDA         N/A     34  27  75 N10       29.98F WCI  26
DEER LODGE       N/A     34  28  80 NW7       30.02S WCI  28
EUREKA           N/A     36  30  80 CALM      30.04S
HAMILTON         N/A     39  30  70 N6        29.97R
LIBBY            N/A     32  30  93 CALM      30.04S
$$

MTZ008-052>055-281300-
SOUTHWEST MONTANA

CITY           SKY/WX    TMP DP  RH WIND       PRES   REMARKS
BOZEMAN        LGT SNOW  33  32  96 CALM      29.99S FOG
DILLON         CLOUDY    33  29  85 NE17      29.93R WCI  22
ENNIS          CLOUDY    32  30  93 N9        29.98S WCI  24
THREE FORKS      N/A     36  36 100 CALM      29.99S
TWIN BRIDGES     N/A     34  28  79 N15       29.93F WCI  24
$$

MTZ009-010-012-014-046-048-049-054-281300-
EAST SLOPES AND CENTRAL MONTANA

CITY           SKY/WX    TMP DP  RH WIND       PRES   REMARKS
CUT BANK       LGT SNOW  32  31  96 E8        30.12S FOG     WCI  25
GREAT FALLS    LGT SNOW  32  31  96 NE12      30.08R FOG     WCI  23
HELENA         FLURRIES  35  31  85 NW5       30.03S
CHOTEAU          N/A     32  32 100 NE10      30.10S FOG     WCI  24
CONRAD           N/A     32  32 100 N5        30.13R
$$

MTZ011-013-016-021-045-047-050-051-281300-
NORTH CENTRAL MONTANA

CITY           SKY/WX    TMP DP  RH WIND       PRES   REMARKS
HAVRE          CLOUDY    37  35  92 NE3       30.15R
LEWISTOWN      CLOUDY    32  28  85 E7        30.07R WCI  26
N BAR RANCH    MIX PCPN  28  28 100 CALM      30.08S
CHINOOK          N/A     36  36 100 CALM      30.16R
$$

MTZ017>020-022>027-061-062-281300-
NORTHEAST MONTANA

CITY           SKY/WX    TMP DP  RH WIND       PRES   REMARKS
GLASGOW        PTCLDY    33  32  96 NW5       30.12R
JORDAN           N/A     35  34  96 NW7       30.10S WCI  29
SIDNEY         MOCLDY    37  27  65 NW5       30.11R
WOLF POINT     PTCLDY    37  30  75 E8        30.12R WCI  31
PLENTYWOOD       N/A     36  21  55 NE12      30.13R WCI  27
POPLAR           N/A     37  27  65 N9        30.13R WCI  31
SCOBEY           N/A     36  18  48 NE5       30.10
$$

MTZ028>42-056>058-281300-
SOUTHCENTRAL AND SOUTHEAST MONTANA

CITY           SKY/WX    TMP DP  RH WIND       PRES   REMARKS
BAKER          CLOUDY    33  31  92 NW12      30.05S WCI  24
BILLINGS       LGT SNOW  31  31 100 NE7       30.05R FOG     WCI  24
LIVINGSTON     LGT SNOW  30  27  88 E16       30.00R FOG     WCI  19
MILES CITY     LGT RAIN  35  33  92 NW5       30.08S
EKALAKA          N/A     32  30  92 N5        30.01  VSB 0
FORSYTH          N/A     34  34 100 N6        30.10R WCI  29
LAUREL           N/A     31  25  78 CALM      30.02R
ROUNDUP          N/A     32  29  89 CALM      29.99R
$$

REGIONAL REPORTS...DAKOTAS

CITY           SKY/WX    TMP DP  RH WIND       PRES   REMARKS
WILLISTON      PTCLDY    38  23  55 NE12      30.12R WCI  30
MINOT          CLOUDY    37  23  56 N8        30.11R WCI  31
DICKINSON      CLOUDY    35  29  78 CALM      30.03R
BEACH          CLOUDY    32  32 100 NW3       30.09R
CROSBY           N/A     28  25  86 NE5       30.18R
TIOGA            N/A     32  23  69 NE10      30.17R WCI  24
WATFORD CITY     N/A     34  27  75 CALM      30.11R
BISMARCK       CLOUDY    37  35  92 NE6       30.08R
GRAND FORKS    CLOUDY    40  22  48 NE9       30.09R
FARGO          CLOUDY    43  25  49 NE10      30.03R
BUFFALO SD       N/A     34  32  92 N10       29.95R WCI  26
RAPID CITY     LGT SNOW  32  31  96 N14       29.98R FOG     WCI  22
$$

REGIONAL REPORTS...WYOMING/IDAHO/WASHINGTON

CITY           SKY/WX    TMP DP  RH WIND       PRES   REMARKS
GILLETTE       CLOUDY    30  29  96 NE7       29.99R WCI  23
SHERIDAN       LGT SNOW  32  31  96 NE5       30.02R FOG
BUFFALO WY     CLOUDY    29  27  92 NE6       29.98S WCI  23
CODY           CLOUDY    28  27  93 N6        29.97R WCI  22
YELLOWSTONE LA   N/A     28  21  75 CALM      29.89R
IDAHO FALLS    CLOUDY    31  25  78 N5        29.82S
SALMON         CLOUDY    43  28  56 E3        29.90S
BOISE          CLEAR     43  38  82 CALM      29.82S
SPOKANE        CLOUDY    49  42  77 E5        29.95S
$$

REGIONAL REPORTS...ALBERTA

CITY           SKY/WX    TMP DP  RH WIND       PRES   REMARKS
EDMONTON       CLEAR     36  27  69 SE3       30.13S
CALGARY        CLOUDY    37  34  87 S16       30.12S FOG     WCI  28
LETHBRIDGE     LGT RAIN  36  34  93 S12G26    30.14S WCI  27
MEDICINE HAT   MOCLDY    39  36  87 NW2       30.18R
WATERTON GATE    N/A     32  32 100 N5          N/A
MILK RIVER       N/A     32  32 100 SE3         N/A
ONEFOUR          N/A     36  32  87 NW2         N/A
$$

REGIONAL REPORTS...SASKATCHEWAN

CITY           SKY/WX    TMP DP  RH WIND       PRES   REMARKS
SWIFT CURRENT  PTCLDY    34  27  75 SE7       30.15R WCI  28
REGINA         MOCLDY    36  21  55 E8        30.21R WCI  29
CYPRESS HILLS    N/A     34  28  80 N6          N/A  WCI  29
VAL MARIE        N/A     37  28  70 E7          N/A
ROCKGLEN         N/A     34  21  60 NE2         N/A
$$




USA.gov is the U.S. government's official web portal to all federal, state and local government web resources and services.